Location: Wabern
(51.1013°N, 9.3500°E)
Time: 06:19:59
(UTC+02:00)

ISS - Pass Details

Date: 23 March 2021
Orbit: 417 x 422 km, 51.6° (Epoch: 12 May)

Event Time Altitude Azimuth Distance (km) Brightness Sun altitude
Rises 20:19:10 0° 258° (WSW) 2,368 1.0 -15.8°
Reaches altitude 10° 20:21:16 10° 259° (WSW) 1,504 -0.1 -16.1°
Maximum altitude 20:24:39 89° 180° (S) 426 -3.8 -16.6°
Enters shadow 20:25:43 41° 80° (E) 625 -3.3 -16.7°
